This is the latest recevied weather packets stored in our database for station/object 9M8ZAL-13. If no packets are shown the sender has not sent any weather packets the latest 10 day(s).
| Time | Temp. | Humidity | Pressure | Rain* | Wind** | Luminosity | Snow |
|---|---|---|---|---|---|---|---|
| 1777600403 | 28.33° C | - | 1010 hPa | - | - | 1005 W/m² | - |
| 1777599803 | 28.89° C | - | 1010 hPa | - | - | 1005 W/m² | - |
| 1777599203 | 28.89° C | - | 1010.1 hPa | - | - | 1005 W/m² | - |
| 1777598602 | 28.33° C | - | 1010.1 hPa | - | - | 1004 W/m² | - |
| 1777598005 | 27.78° C | - | 1010.2 hPa | - | - | 1004 W/m² | - |
| 1777597403 | 28.33° C | - | 1010.3 hPa | - | - | 1004 W/m² | - |
| 1777596802 | 27.22° C | - | 1010.1 hPa | - | - | 1004 W/m² | - |
| 1777595002 | 28.33° C | - | 1010.3 hPa | - | - | 1003 W/m² | - |
| 1777594402 | 27.78° C | - | 1010.2 hPa | - | - | 1002 W/m² | - |
| 1777593802 | 27.22° C | - | 1010.1 hPa | - | - | 1002 W/m² | - |
| 1777593202 | 27.78° C | - | 1009.9 hPa | - | - | 1001 W/m² | - |
| 1777592602 | 27.22° C | - | 1009.9 hPa | - | - | 1001 W/m² | - |
| 1777591403 | 27.22° C | - | 1009.5 hPa | - | - | 1000 W/m² | - |
| 1777590802 | 27.22° C | - | 1009.4 hPa | - | - | 1000 W/m² | - |
| 1777590202 | 27.22° C | - | 1009.5 hPa | - | - | 1000 W/m² | - |
| 1777589602 | 26.67° C | - | 1009.4 hPa | - | - | 1000 W/m² | - |
| 1777589002 | 27.22° C | - | 1009.4 hPa | - | - | 1000 W/m² | - |
| 1777588402 | 27.22° C | - | 1009.4 hPa | - | - | 1000 W/m² | - |
| 1777587802 | 27.22° C | - | 1009.4 hPa | - | - | 1000 W/m² | - |
| 1777587202 | 26.67° C | - | 1009 hPa | - | - | 1000 W/m² | - |
| 1777586602 | 27.22° C | - | 1009 hPa | - | - | 1000 W/m² | - |
| 1777586002 | 26.67° C | - | 1009 hPa | - | - | 1000 W/m² | - |
| 1777585402 | 26.67° C | - | 1009.1 hPa | - | - | 1000 W/m² | - |
| 1777584802 | 27.22° C | - | 1009 hPa | - | - | 1000 W/m² | - |
| 1777584202 | 26.67° C | - | 1009 hPa | - | - | 1000 W/m² | - |
* Rain since midnight (hover to see other rain measurements)
** Current wind speed in m/s (hover to see current wind gust speed)